AO-7 - Orbit

View from above orbital plane
View from above orbital plane
View from above satellite
View from above satellite

Ground track
Ground track

The orbit data is extracted from the following two-line orbital elements,

1 07530U 74089B   13143.61942390 -.00000042  00000-0  91444-5 0  6877
2 07530 101.4291 134.0188 0011658 338.6829 132.6668 12.53596416762706
Epoch (UTC): 23 May 2013 14:51:58
Eccentricity: 0.0011658
inclination: 101.4291°
perigee height: 1440 km
apogee height: 1458 km
right ascension of ascending node: 134.0188°
argument of perigee: 338.6829°
revolutions per day: 12.53596416
mean anomaly at epoch: 132.6668°
orbit number at epoch: 76270

The dashed part of the orbit path shows where the satellite is in the earth's shadow,  

Developed and maintained by Chris Peat, Heavens-Above GmbH. Please read the updated FAQ before sending e-mail. Imprint. DLR